Regional Weather Roundup
Issued by NWS

Home | Current Version | Previous Version | Graphics & Text | Print | Product List | Glossary On
Versions: 1 2 3 4 5 6 7 8 9 10 11 12 13 14 15 16 17 18 19 20 21 22 23 24 25 26 27 28 29 30 31 32 33 34 35 36 37 38 39 40 41 42 43 44 45 46 47 48 49 50
611
ASUS44 KLIX 220210
RWRLA
LOUISIANA WEATHER ROUNDUP
NATIONAL WEATHER SERVICE NEW ORLEANS LA
800 PM CST FRI NOV 21 2014

NOTE: "FAIR" INDICATES FEW OR NO CLOUDS BELOW 12,000 FEET WITH NO
      SIGNIFICANT WEATHER AND/OR OBSTRUCTIONS TO VISIBILITY.
      SKY/WX - SKY CONDITION AND SIGNIFICANT WEATHER.
      TMP - AIR TEMPERATURE.    DP   - DEWPOINT TEMPERATURE.
      RH  - RELATIVE HUMIDITY.  PRES - PRESSURE.
      HX  - HEAT INDEX.         WCI  - WIND CHILL INDEX.

*  THESE STATIONS ARE NOT NWS OR FAA STATIONS AND ARE NOT UNDER
   NWS QUALITY CONTROL.

LAZ040-048-061>063-065-066-069-220300-
SOUTHEAST LOUISIANA

CITY           SKY/WX    TMP DP  RH WIND       PRES   REMARKS
N.O. AUDUBON     N/A     60  55  82 MISG        N/A
N.O. INTL ARPT PTCLDY    60  52  74 E8        30.27S
N.O. LAKEFRONT CLEAR     59  52  77 E10       30.27F
N.O. DOWNTOWN* FAIR      61  50  67 E7        30.28S
SLIDELL        CLEAR     52  48  86 CALM      30.27F
BATON ROUGE    MOCLDY    61  52  72 E9        30.27R
BOOTHVILLE     CLEAR     62  52  69 E8        30.26S
BELLE CHASSE   CLEAR     55  50  83 E3        30.27S
BOGALUSA*        N/A     54  44  70 SE3       30.29F
NEW ROADS*     MOCLDY    62  51  69 E9        30.26S
GONZALES*      FAIR      59  55  86 CALM      30.26S
HAMMOND*       PTCLDY    57  50  77 CALM      30.29S
HOUMA*         CLEAR     58  50  74 E8        30.25S
PORT FOURCHON* CLEAR     64  54  68 E14       30.28R

$$

LAZ041-044-053-054-220300-
SOUTHWEST LOUISIANA

CITY           SKY/WX    TMP DP  RH WIND       PRES   REMARKS
LAKE CHARLES   CLOUDY    63  51  65 SE16G24   30.20R
LAFAYETTE      CLOUDY    62  49  62 VRB6      30.24S
PATTERSON      CLEAR     57  48  72 E7        30.27F
SALT POINT       N/A     60  51  72 VRB6      30.23S
NEW IBERIA     MOCLDY    61  50  67 E12       30.25R
CHENAULT AIRPK NOT AVBL

$$

LAZ027-028-220300-
CENTRAL LOUISIANA

CITY           SKY/WX    TMP DP  RH WIND       PRES   REMARKS
FORT POLK      LGT RAIN  59  54  82 SE7       30.21R
ALEXANDRIA INT CLOUDY    63  46  54 SE10      30.21R
ALEXANDRIA     CLOUDY    63  48  58 SE9       30.23R

$$

LAZ001-002-220300-
NORTHWEST LOUISIANA

CITY           SKY/WX    TMP DP  RH WIND       PRES   REMARKS
SHREVEPORT     CLOUDY    59  51  75 SE8       30.19R
BARKSDALE AFB  CLOUDY    58  50  75 SE13      30.20S
DTN SHREVEPORT CLOUDY    59  49  69 SE12      30.20R

$$

LAZ014-016-220300-
NORTHEAST LOUISIANA

CITY           SKY/WX    TMP DP  RH WIND       PRES   REMARKS
MONROE         MOCLDY    63  48  58 E3        30.25S
TALLULAH       PTCLDY    54  47  77 SE5       30.27R

$$




USA.gov is the U.S. government's official web portal to all federal, state and local government web resources and services.